Regional Weather Roundup
Issued by NWS

Home | Current Version | Previous Version | Graphics & Text | Print | Product List | Glossary On
Versions: 1 2 3 4 5 6 7 8 9 10 11 12 13 14 15 16 17 18 19 20 21 22 23 24 25 26 27 28 29 30 31 32 33 34 35 36 37 38 39 40 41 42 43 44 45 46 47 48 49 50
789
ASUS44 KLIX 220910
RWRLA
LOUISIANA WEATHER ROUNDUP
NATIONAL WEATHER SERVICE NEW ORLEANS LA
400 AM CDT MON SEP 22 2014

NOTE: "FAIR" INDICATES FEW OR NO CLOUDS BELOW 12,000 FEET WITH NO
      SIGNIFICANT WEATHER AND/OR OBSTRUCTIONS TO VISIBILITY.
      SKY/WX - SKY CONDITION AND SIGNIFICANT WEATHER.
      TMP - AIR TEMPERATURE.    DP   - DEWPOINT TEMPERATURE.
      RH  - RELATIVE HUMIDITY.  PRES - PRESSURE.
      HX  - HEAT INDEX.         WCI  - WIND CHILL INDEX.

*  THESE STATIONS ARE NOT NWS OR FAA STATIONS AND ARE NOT UNDER
   NWS QUALITY CONTROL.

LAZ040-048-061>063-065-066-069-221000-
SOUTHEAST LOUISIANA

CITY           SKY/WX    TMP DP  RH WIND       PRES   REMARKS
N.O. AUDUBON     N/A     73  73 100 MISG        N/A
N.O. INTL ARPT PTCLDY    74  70  87 CALM      30.00S
N.O. LAKEFRONT CLEAR     80  71  74 N5        30.00S
N.O. DOWNTOWN* FAIR      79  66  65 CALM      30.00S
SLIDELL        CLEAR     67  65  93 CALM      30.00S
BATON ROUGE    CLEAR     68  67  96 CALM      30.01F
BOOTHVILLE     CLEAR     80  74  81 NE3       29.98F
BELLE CHASSE   CLEAR     71  67  87 N3        29.99S
BOGALUSA*        N/A     67  64  90 CALM      30.03S
GALLIANO*      NOT AVBL
NEW ROADS*     CLOUDY    69  68  98 CALM      30.02S FOG
GONZALES*      FAIR      67  67 100 CALM      30.01S FOG
HAMMOND*       CLEAR     68  64  88 CALM      30.02S
HOUMA*         CLEAR     71  66  84 CALM      29.99F
PORT FOURCHON* SUNNY     79  73  83 N7        30.01S

$$

LAZ041-044-053-054-221000-
SOUTHWEST LOUISIANA

CITY           SKY/WX    TMP DP  RH WIND       PRES   REMARKS
LAKE CHARLES   CLEAR     71  70  96 CALM      30.02S
LAFAYETTE      CLEAR     72  71  97 CALM      30.02R
PATTERSON        N/A     70  68  94 CALM      30.03S VSB 1/2
SALT POINT       N/A     75  72  90 CALM      30.00S
NEW IBERIA     CLEAR     70  68  93 NW5       30.02S
CHENAULT AIRPK CLEAR     72  71  94 N3        30.02S

$$

LAZ027-028-221000-
CENTRAL LOUISIANA

CITY           SKY/WX    TMP DP  RH WIND       PRES   REMARKS
FORT POLK      CLEAR     72  70  93 CALM      30.03F
ALEXANDRIA INT PTCLDY    72  70  93 N6        30.03R
ALEXANDRIA     PTCLDY    73  69  87 CALM      30.04R

$$

LAZ001-002-221000-
NORTHWEST LOUISIANA

CITY           SKY/WX    TMP DP  RH WIND       PRES   REMARKS
SHREVEPORT     MOCLDY    77  67  71 N9        30.08R
BARKSDALE AFB  PTCLDY    75  68  78 N5        30.08R
DTN SHREVEPORT PTCLDY    75  65  70 NE7       30.08R

$$

LAZ014-016-221000-
NORTHEAST LOUISIANA

CITY           SKY/WX    TMP DP  RH WIND       PRES   REMARKS
MONROE         CLEAR     73  57  57 NE7       30.07R
TALLULAH       PTCLDY    74  61  63 N10       30.04R

$$




USA.gov is the U.S. government's official web portal to all federal, state and local government web resources and services.